Time,TemperatureF,DewpointF,PressureIn,WindDirection,WindDirectionDegrees,WindSpeedMPH,WindSpeedGustMPH,Humidity,HourlyPrecipIn,Conditions,Clouds,dailyrainin,SoftwareType,DateUTC
2013-09-27 00:06:00,54.8,54.0,30.04,SW,218,0.0,1.0,96,0.00,,,0.00,weatherlink.com 1.10,2013-09-27 04:06:00,
2013-09-27 00:21:00,54.8,53.0,30.04,SW,218,0.0,0.0,95,0.00,,,0.00,weatherlink.com 1.10,2013-09-27 04:21:00,
2013-09-27 00:36:00,54.6,54.0,30.04,SW,218,0.0,0.0,96,0.00,,,0.00,weatherlink.com 1.10,2013-09-27 04:36:00,
2013-09-27 00:51:00,54.4,53.0,30.04,SW,218,0.0,1.0,96,0.00,,,0.00,weatherlink.com 1.10,2013-09-27 04:51:00,
2013-09-27 01:06:00,54.3,53.0,30.04,SW,218,0.0,0.0,95,0.00,,,0.00,weatherlink.com 1.10,2013-09-27 05:06:00,
2013-09-27 01:21:00,54.1,53.0,30.04,SW,218,0.0,1.0,96,0.00,,,0.00,weatherlink.com 1.10,2013-09-27 05:21:00,
2013-09-27 01:36:00,54.1,53.0,30.04,SW,218,0.0,0.0,95,0.00,,,0.00,weatherlink.com 1.10,2013-09-27 05:36:00,
2013-09-27 01:51:00,54.2,53.0,30.04,SW,218,0.0,0.0,96,0.00,,,0.00,weatherlink.com 1.10,2013-09-27 05:51:00,
2013-09-27 02:06:00,54.1,53.0,30.05,SW,218,0.0,0.0,95,0.00,,,0.00,weatherlink.com 1.10,2013-09-27 06:06:00,
2013-09-27 02:21:00,54.3,53.0,30.05,SW,218,0.0,0.0,94,0.00,,,0.00,weatherlink.com 1.10,2013-09-27 06:21:00,
2013-09-27 02:36:00,54.4,53.0,30.05,SW,218,0.0,0.0,93,0.00,,,0.00,weatherlink.com 1.10,2013-09-27 06:36:00,
2013-09-27 02:51:00,54.8,53.0,30.05,SW,218,0.0,1.0,93,0.00,,,0.00,weatherlink.com 1.10,2013-09-27 06:51:00,
2013-09-27 03:06:00,54.9,53.0,30.04,SW,218,0.0,2.0,93,0.00,,,0.00,weatherlink.com 1.10,2013-09-27 07:06:00,
2013-09-27 03:21:00,54.7,53.0,30.04,SW,218,0.0,0.0,93,0.00,,,0.00,weatherlink.com 1.10,2013-09-27 07:21:00,
2013-09-27 03:36:00,54.2,52.0,30.04,SW,218,0.0,0.0,93,0.00,,,0.00,weatherlink.com 1.10,2013-09-27 07:36:00,
2013-09-27 03:51:00,53.9,52.0,30.04,SW,218,0.0,0.0,94,0.00,,,0.00,weatherlink.com 1.10,2013-09-27 07:51:00,
2013-09-27 04:06:00,53.7,53.0,30.04,SW,218,0.0,1.0,96,0.00,,,0.00,weatherlink.com 1.10,2013-09-27 08:06:00,
2013-09-27 04:21:00,53.6,52.0,30.04,SW,218,0.0,0.0,95,0.00,,,0.00,weatherlink.com 1.10,2013-09-27 08:21:00,
2013-09-27 04:36:00,53.6,53.0,30.04,SW,218,0.0,1.0,96,0.00,,,0.00,weatherlink.com 1.10,2013-09-27 08:36:00,
2013-09-27 04:51:00,53.5,52.0,30.05,SW,218,0.0,1.0,96,0.00,,,0.00,weatherlink.com 1.10,2013-09-27 08:51:00,
2013-09-27 05:06:00,53.3,53.0,30.05,SW,218,0.0,1.0,97,0.00,,,0.00,weatherlink.com 1.10,2013-09-27 09:06:00,
2013-09-27 05:21:00,53.1,52.0,30.05,SW,218,0.0,0.0,97,0.00,,,0.00,weatherlink.com 1.10,2013-09-27 09:21:00,
2013-09-27 05:36:00,52.8,52.0,30.06,SW,218,0.0,0.0,97,0.00,,,0.00,weatherlink.com 1.10,2013-09-27 09:36:00,
2013-09-27 05:51:00,52.6,52.0,30.06,SW,218,0.0,0.0,97,0.00,,,0.00,weatherlink.com 1.10,2013-09-27 09:51:00,
2013-09-27 06:06:00,52.4,52.0,30.07,SW,218,0.0,0.0,98,0.00,,,0.00,weatherlink.com 1.10,2013-09-27 10:06:00,
2013-09-27 06:21:00,52.2,52.0,30.07,SW,218,0.0,0.0,98,0.00,,,0.00,weatherlink.com 1.10,2013-09-27 10:21:00,
2013-09-27 06:36:00,52.1,52.0,30.07,SW,218,0.0,0.0,98,0.00,,,0.00,weatherlink.com 1.10,2013-09-27 10:36:00,
2013-09-27 06:51:00,51.7,51.0,30.08,SW,218,0.0,0.0,98,0.00,,,0.00,weatherlink.com 1.10,2013-09-27 10:51:00,
2013-09-27 07:00:00,51.5,50.7,30.08,SW,218,0.0,0.0,97,0.00,,,0.00,Wunderground v.1.15,2013-09-27 11:00:00,
2013-09-27 07:05:00,51.4,50.6,30.09,SW,218,0.0,0.0,97,0.00,,,0.00,Wunderground v.1.15,2013-09-27 11:05:00,
2013-09-27 07:10:00,51.3,50.5,30.09,SW,218,0.0,0.0,97,0.00,,,0.00,Wunderground v.1.15,2013-09-27 11:10:00,
2013-09-27 07:15:00,51.2,50.4,30.09,SW,218,0.0,0.0,97,0.00,,,0.00,Wunderground v.1.15,2013-09-27 11:15:00,
2013-09-27 07:22:00,51.3,51.0,30.09,SW,218,0.0,0.0,97,0.00,,,0.00,weatherlink.com 1.10,2013-09-27 11:22:00,
2013-09-27 07:30:00,51.4,50.3,30.09,SW,218,0.0,0.0,96,0.00,,,0.00,Wunderground v.1.15,2013-09-27 11:30:00,
2013-09-27 07:37:00,51.4,50.0,30.10,SW,218,0.0,0.0,95,0.00,,,0.00,weatherlink.com 1.10,2013-09-27 11:37:00,
2013-09-27 07:45:00,51.4,50.0,30.10,SW,218,0.0,0.0,95,0.00,,,0.00,Wunderground v.1.15,2013-09-27 11:45:00,
2013-09-27 07:50:00,51.5,50.1,30.10,SW,218,0.0,0.0,95,0.00,,,0.00,Wunderground v.1.15,2013-09-27 11:50:00,
2013-09-27 08:00:00,51.9,50.2,30.11,SW,218,1.0,1.0,94,0.00,,,0.00,Wunderground v.1.15,2013-09-27 12:00:00,
2013-09-27 08:07:00,52.3,50.0,30.11,SW,218,0.0,2.0,93,0.00,,,0.00,weatherlink.com 1.10,2013-09-27 12:07:00,
2013-09-27 08:15:00,52.5,50.5,30.11,SW,218,0.0,0.0,93,0.00,,,0.00,Wunderground v.1.15,2013-09-27 12:15:00,
2013-09-27 08:20:00,52.6,50.6,30.11,SW,217,1.0,1.0,93,0.00,,,0.00,Wunderground v.1.15,2013-09-27 12:20:00,
2013-09-27 08:25:00,52.7,50.4,30.12,SW,217,1.0,1.0,92,0.00,,,0.00,Wunderground v.1.15,2013-09-27 12:25:00,
2013-09-27 08:35:00,53.0,51.3,30.12,SW,217,0.0,0.0,94,0.00,,,0.00,Wunderground v.1.15,2013-09-27 12:35:00,
2013-09-27 08:40:00,53.2,51.8,30.12,SW,217,0.0,0.0,95,0.00,,,0.00,Wunderground v.1.15,2013-09-27 12:40:00,
2013-09-27 08:50:00,53.2,51.8,30.13,SW,217,0.0,0.0,95,0.00,,,0.00,Wunderground v.1.15,2013-09-27 12:50:00,
2013-09-27 08:55:00,53.2,52.1,30.13,SW,217,0.0,0.0,96,0.00,,,0.00,Wunderground v.1.15,2013-09-27 12:55:00,
2013-09-27 09:00:00,53.2,51.8,30.12,SW,217,0.0,0.0,95,0.00,,,0.00,Wunderground v.1.15,2013-09-27 13:00:00,
2013-09-27 09:08:00,53.5,52.0,30.12,SW,217,0.0,1.0,96,0.00,,,0.00,weatherlink.com 1.10,2013-09-27 13:08:00,
2013-09-27 09:15:00,53.7,52.6,30.13,SW,217,0.0,0.0,96,0.00,,,0.00,Wunderground v.1.15,2013-09-27 13:15:00,
2013-09-27 09:20:00,53.8,52.7,30.13,SW,217,0.0,0.0,96,0.00,,,0.00,Wunderground v.1.15,2013-09-27 13:20:00,
2013-09-27 09:25:00,53.8,52.7,30.13,SW,217,0.0,0.0,96,0.00,,,0.00,Wunderground v.1.15,2013-09-27 13:25:00,
2013-09-27 09:30:00,53.9,52.8,30.13,SW,217,0.0,0.0,96,0.00,,,0.00,Wunderground v.1.15,2013-09-27 13:30:00,
2013-09-27 09:38:00,54.2,53.0,30.14,SW,217,0.0,1.0,96,0.00,,,0.00,weatherlink.com 1.10,2013-09-27 13:38:00,
2013-09-27 09:45:00,54.3,53.5,30.14,SW,217,0.0,0.0,97,0.00,,,0.00,Wunderground v.1.15,2013-09-27 13:45:00,
2013-09-27 09:55:00,54.4,53.0,30.14,SW,217,0.0,1.0,96,0.00,,,0.00,weatherlink.com 1.10,2013-09-27 13:55:00,
2013-09-27 10:00:00,54.3,52.9,30.14,SW,217,0.0,0.0,95,0.00,,,0.00,Wunderground v.1.15,2013-09-27 14:00:00,
2013-09-27 10:09:00,54.0,53.0,30.14,SW,217,0.0,0.0,95,0.00,,,0.00,weatherlink.com 1.10,2013-09-27 14:09:00,
2013-09-27 10:15:00,54.0,52.9,30.14,SW,217,0.0,0.0,96,0.00,,,0.00,Wunderground v.1.15,2013-09-27 14:15:00,
2013-09-27 10:20:00,54.0,52.9,30.15,SW,217,0.0,0.0,96,0.00,,,0.00,Wunderground v.1.15,2013-09-27 14:20:00,
2013-09-27 10:25:00,53.9,53.1,30.15,SW,217,0.0,0.0,97,0.00,,,0.00,Wunderground v.1.15,2013-09-27 14:25:00,
2013-09-27 10:30:00,54.0,53.2,30.15,SW,217,0.0,0.0,97,0.00,,,0.00,Wunderground v.1.15,2013-09-27 14:30:00,
2013-09-27 10:35:00,54.0,53.2,30.15,SW,217,0.0,0.0,97,0.00,,,0.00,Wunderground v.1.15,2013-09-27 14:35:00,
2013-09-27 10:40:00,54.1,53.5,30.15,SW,217,0.0,0.0,98,0.00,,,0.00,Wunderground v.1.15,2013-09-27 14:40:00,
2013-09-27 10:50:00,54.2,53.6,30.15,SW,217,0.0,0.0,98,0.00,,,0.00,Wunderground v.1.15,2013-09-27 14:50:00,
2013-09-27 11:00:00,55.0,54.4,30.15,SW,217,0.0,0.0,98,0.00,,,0.00,Wunderground v.1.15,2013-09-27 15:00:00,
2013-09-27 11:10:00,55.5,55.0,30.15,SW,217,1.0,2.0,98,0.00,,,0.00,weatherlink.com 1.10,2013-09-27 15:10:00,
2013-09-27 11:15:00,55.7,55.1,30.16,SW,217,0.0,0.0,98,0.00,,,0.00,Wunderground v.1.15,2013-09-27 15:15:00,
2013-09-27 11:20:00,55.8,55.2,30.16,SW,217,0.0,0.0,98,0.00,,,0.00,Wunderground v.1.15,2013-09-27 15:20:00,
2013-09-27 11:30:00,56.0,55.4,30.16,SW,217,0.0,0.0,98,0.00,,,0.00,Wunderground v.1.15,2013-09-27 15:30:00,
2013-09-27 11:40:00,56.1,55.0,30.16,SW,217,0.0,2.0,97,0.00,,,0.00,weatherlink.com 1.10,2013-09-27 15:40:00,
2013-09-27 11:45:00,56.1,55.3,30.16,SW,217,0.0,1.0,97,0.00,,,0.00,Wunderground v.1.15,2013-09-27 15:45:00,
2013-09-27 11:55:00,56.6,56.0,30.16,SW,223,2.0,3.0,98,0.00,,,0.00,weatherlink.com 1.10,2013-09-27 15:55:00,
2013-09-27 12:00:00,56.7,55.9,30.16,SW,223,1.0,1.0,97,0.00,,,0.00,Wunderground v.1.15,2013-09-27 16:00:00,
2013-09-27 12:10:00,57.2,56.0,30.15,SW,223,1.0,2.0,97,0.00,,,0.00,weatherlink.com 1.10,2013-09-27 16:10:00,
2013-09-27 12:20:00,57.3,55.6,30.15,SW,226,1.0,1.0,94,0.00,,,0.00,Wunderground v.1.15,2013-09-27 16:20:00,
2013-09-27 12:27:00,57.8,56.0,30.15,SW,226,1.0,3.0,94,0.00,,,0.00,weatherlink.com 1.10,2013-09-27 16:27:00,
2013-09-27 12:35:00,58.3,56.9,30.15,West,259,1.0,2.0,95,0.00,,,0.00,Wunderground v.1.15,2013-09-27 16:35:00,
2013-09-27 12:40:00,58.5,57.0,30.15,West,259,0.0,4.0,95,0.00,,,0.00,weatherlink.com 1.10,2013-09-27 16:40:00,
2013-09-27 12:50:00,59.1,57.1,30.15,NNW,344,1.0,1.0,93,0.00,,,0.00,Wunderground v.1.15,2013-09-27 16:50:00,
2013-09-27 12:55:00,59.2,57.2,30.14,NNW,340,1.0,1.0,93,0.00,,,0.00,Wunderground v.1.15,2013-09-27 16:55:00,
2013-09-27 13:00:00,59.6,57.6,30.14,NNW,341,0.0,0.0,93,0.00,,,0.00,Wunderground v.1.15,2013-09-27 17:00:00,
2013-09-27 13:10:00,60.1,57.5,30.14,NNW,341,0.0,0.0,91,0.00,,,0.00,Wunderground v.1.15,2013-09-27 17:10:00,
2013-09-27 13:15:00,60.2,57.9,30.14,NNW,341,0.0,0.0,92,0.00,,,0.00,Wunderground v.1.15,2013-09-27 17:15:00,
2013-09-27 13:25:00,60.6,57.7,30.13,West,269,1.0,2.0,90,0.00,,,0.00,Wunderground v.1.15,2013-09-27 17:25:00,
2013-09-27 13:30:00,60.6,57.0,30.13,West,270,1.0,1.0,88,0.00,,,0.00,Wunderground v.1.15,2013-09-27 17:30:00,
2013-09-27 13:40:00,60.5,56.9,30.13,West,270,0.0,0.0,88,0.00,,,0.00,Wunderground v.1.15,2013-09-27 17:40:00,
2013-09-27 13:45:00,60.4,57.1,30.12,West,270,0.0,0.0,89,0.00,,,0.00,Wunderground v.1.15,2013-09-27 17:45:00,
2013-09-27 13:50:00,60.3,56.7,30.12,West,270,0.0,0.0,88,0.00,,,0.00,Wunderground v.1.15,2013-09-27 17:50:00,
2013-09-27 13:57:00,60.7,58.0,30.12,West,271,3.0,3.0,90,0.00,,,0.00,weatherlink.com 1.10,2013-09-27 17:57:00,
2013-09-27 14:05:00,62.1,57.9,30.12,WSW,244,1.0,2.0,86,0.00,,,0.00,Wunderground v.1.15,2013-09-27 18:05:00,
2013-09-27 14:10:00,62.9,57.7,30.11,West,260,2.0,2.0,83,0.00,,,0.00,Wunderground v.1.15,2013-09-27 18:10:00,
2013-09-27 14:20:00,63.3,58.4,30.11,NE,55,2.0,2.0,84,0.00,,,0.00,Wunderground v.1.15,2013-09-27 18:20:00,
2013-09-27 14:27:00,62.9,57.0,30.11,NNE,28,0.0,4.0,82,0.00,,,0.00,weatherlink.com 1.10,2013-09-27 18:27:00,
2013-09-27 14:35:00,63.5,57.6,30.10,NNE,26,1.0,2.0,81,0.00,,,0.00,Wunderground v.1.15,2013-09-27 18:35:00,
2013-09-27 14:40:00,64.2,58.9,30.10,North,360,1.0,1.0,83,0.00,,,0.00,Wunderground v.1.15,2013-09-27 18:40:00,
2013-09-27 14:50:00,64.7,58.4,30.10,SW,223,1.0,2.0,80,0.00,,,0.00,Wunderground v.1.15,2013-09-27 18:50:00,
2013-09-27 14:55:00,64.8,57.4,30.10,WSW,242,1.0,2.0,77,0.00,,,0.00,Wunderground v.1.15,2013-09-27 18:55:00,
2013-09-27 15:05:00,65.3,58.6,30.09,NW,304,1.0,1.0,79,0.00,,,0.00,Wunderground v.1.15,2013-09-27 19:05:00,
2013-09-27 15:10:00,65.5,58.5,30.09,NW,304,1.0,1.0,78,0.00,,,0.00,Wunderground v.1.15,2013-09-27 19:10:00,
2013-09-27 15:20:00,65.9,57.7,30.09,WNW,287,1.0,2.0,75,0.00,,,0.00,Wunderground v.1.15,2013-09-27 19:20:00,
2013-09-27 15:28:00,66.2,58.0,30.09,North,355,0.0,3.0,75,0.00,,,0.00,weatherlink.com 1.10,2013-09-27 19:28:00,
2013-09-27 15:35:00,66.0,57.5,30.09,NNW,335,1.0,1.0,74,0.00,,,0.00,Wunderground v.1.15,2013-09-27 19:35:00,
2013-09-27 15:50:00,66.1,57.6,30.09,NNE,17,1.0,1.0,74,0.00,,,0.00,Wunderground v.1.15,2013-09-27 19:50:00,
2013-09-27 15:58:00,66.7,59.0,30.09,NNE,15,0.0,2.0,77,0.00,,,0.00,weatherlink.com 1.10,2013-09-27 19:58:00,
2013-09-27 16:05:00,66.8,56.3,30.09,NNE,15,0.0,0.0,69,0.00,,,0.00,Wunderground v.1.15,2013-09-27 20:05:00,
2013-09-27 16:10:00,66.4,55.9,30.09,NNE,15,0.0,0.0,69,0.00,,,0.00,Wunderground v.1.15,2013-09-27 20:10:00,
2013-09-27 16:20:00,66.8,57.5,30.08,NNE,15,0.0,0.0,72,0.00,,,0.00,Wunderground v.1.15,2013-09-27 20:20:00,
2013-09-27 16:29:00,67.4,56.0,30.09,NW,321,1.0,3.0,67,0.00,,,0.00,weatherlink.com 1.10,2013-09-27 20:29:00,
2013-09-27 16:35:00,67.7,58.0,30.09,NW,321,1.0,1.0,71,0.00,,,0.00,Wunderground v.1.15,2013-09-27 20:35:00,
2013-09-27 16:44:00,68.1,58.0,30.09,NNW,327,0.0,4.0,69,0.00,,,0.00,weatherlink.com 1.10,2013-09-27 20:44:00,
2013-09-27 16:50:00,68.1,57.9,30.08,NNW,327,1.0,1.0,70,0.00,,,0.00,Wunderground v.1.15,2013-09-27 20:50:00,
2013-09-27 16:55:00,68.3,57.7,30.08,NNW,327,0.0,1.0,69,0.00,,,0.00,Wunderground v.1.15,2013-09-27 20:55:00,
2013-09-27 17:00:00,68.6,57.6,30.08,NNW,327,0.0,1.0,68,0.00,,,0.00,Wunderground v.1.15,2013-09-27 21:00:00,
2013-09-27 17:14:00,69.0,57.0,30.08,North,5,1.0,2.0,65,0.00,,,0.00,weatherlink.com 1.10,2013-09-27 21:14:00,
2013-09-27 17:20:00,69.4,54.9,30.08,North,5,0.0,0.0,60,0.00,,,0.00,Wunderground v.1.15,2013-09-27 21:20:00,
2013-09-27 17:25:00,69.5,55.0,30.08,SW,229,1.0,1.0,60,0.00,,,0.00,Wunderground v.1.15,2013-09-27 21:25:00,
2013-09-27 17:30:00,69.4,55.4,30.08,WSW,238,0.0,0.0,61,0.00,,,0.00,Wunderground v.1.15,2013-09-27 21:30:00,
2013-09-27 17:35:00,69.4,54.4,30.08,WSW,238,0.0,1.0,59,0.00,,,0.00,Wunderground v.1.15,2013-09-27 21:35:00,
2013-09-27 17:45:00,69.6,54.0,30.08,NNE,17,0.0,2.0,59,0.00,,,0.00,weatherlink.com 1.10,2013-09-27 21:45:00,
2013-09-27 17:50:00,69.8,53.4,30.08,NNE,18,0.0,1.0,56,0.00,,,0.00,Wunderground v.1.15,2013-09-27 21:50:00,
2013-09-27 17:55:00,69.9,55.4,30.08,NNE,18,1.0,1.0,60,0.00,,,0.00,Wunderground v.1.15,2013-09-27 21:55:00,
2013-09-27 18:05:00,70.3,57.5,30.09,NNE,18,0.0,0.0,64,0.00,,,0.00,Wunderground v.1.15,2013-09-27 22:05:00,
2013-09-27 18:10:00,70.2,55.2,30.09,NNE,17,0.0,0.0,59,0.00,,,0.00,Wunderground v.1.15,2013-09-27 22:10:00,
2013-09-27 18:20:00,70.2,57.4,30.09,NNE,17,0.0,0.0,64,0.00,,,0.00,Wunderground v.1.15,2013-09-27 22:20:00,
2013-09-27 18:30:00,69.9,58.9,30.09,NNE,17,0.0,0.0,68,0.00,,,0.00,Wunderground v.1.15,2013-09-27 22:30:00,
2013-09-27 18:40:00,69.9,59.3,30.09,NNE,17,0.0,1.0,69,0.00,,,0.00,Wunderground v.1.15,2013-09-27 22:40:00,
2013-09-27 18:50:00,69.1,58.9,30.09,NNE,17,0.0,0.0,70,0.00,,,0.00,Wunderground v.1.15,2013-09-27 22:50:00,
2013-09-27 18:55:00,68.8,58.6,30.09,NNE,17,0.0,0.0,70,0.00,,,0.00,Wunderground v.1.15,2013-09-27 22:55:00,
2013-09-27 19:01:00,68.6,59.0,30.09,NNE,17,0.0,0.0,71,0.00,,,0.00,weatherlink.com 1.10,2013-09-27 23:01:00,
2013-09-27 19:10:00,67.9,58.5,30.08,NNE,17,0.0,0.0,72,0.00,,,0.00,Wunderground v.1.15,2013-09-27 23:10:00,
2013-09-27 19:16:00,67.7,58.0,30.08,NNE,17,0.0,0.0,71,0.00,,,0.00,weatherlink.com 1.10,2013-09-27 23:16:00,
2013-09-27 19:25:00,66.7,56.6,30.08,NNE,17,0.0,0.0,70,0.00,,,0.00,Wunderground v.1.15,2013-09-27 23:25:00,
2013-09-27 19:30:00,65.9,57.0,30.09,NNE,17,0.0,1.0,73,0.00,,,0.00,weatherlink.com 1.10,2013-09-27 23:30:00,
2013-09-27 19:45:00,64.1,56.0,30.09,NNE,17,0.0,1.0,74,0.00,,,0.00,weatherlink.com 1.10,2013-09-27 23:45:00,
2013-09-27 20:00:00,62.7,58.0,30.09,NNE,17,0.0,1.0,84,0.00,,,0.00,weatherlink.com 1.10,2013-09-28 00:00:00,
2013-09-27 20:15:00,61.8,58.0,30.09,NNE,17,0.0,0.0,87,0.00,,,0.00,weatherlink.com 1.10,2013-09-28 00:15:00,
2013-09-27 20:30:00,60.7,58.0,30.10,NNE,17,0.0,0.0,90,0.00,,,0.00,weatherlink.com 1.10,2013-09-28 00:30:00,
2013-09-27 20:45:00,59.6,57.0,30.11,NNE,17,0.0,1.0,92,0.00,,,0.00,weatherlink.com 1.10,2013-09-28 00:45:00,
2013-09-27 21:00:00,58.7,57.0,30.11,NNE,17,0.0,1.0,94,0.00,,,0.00,weatherlink.com 1.10,2013-09-28 01:00:00,
2013-09-27 21:15:00,58.2,57.0,30.12,NNE,17,0.0,1.0,95,0.00,,,0.00,weatherlink.com 1.10,2013-09-28 01:15:00,
2013-09-27 21:30:00,57.8,57.0,30.12,NNE,17,0.0,1.0,96,0.00,,,0.00,weatherlink.com 1.10,2013-09-28 01:30:00,
2013-09-27 21:45:00,57.5,57.0,30.13,NNE,17,0.0,1.0,97,0.00,,,0.00,weatherlink.com 1.10,2013-09-28 01:45:00,
2013-09-27 22:00:00,57.5,57.0,30.13,NNE,17,0.0,0.0,97,0.00,,,0.00,weatherlink.com 1.10,2013-09-28 02:00:00,
2013-09-27 22:15:00,57.1,56.0,30.14,NNE,17,0.0,0.0,96,0.00,,,0.00,weatherlink.com 1.10,2013-09-28 02:15:00,
2013-09-27 22:30:00,56.9,56.0,30.14,NNE,17,0.0,1.0,96,0.00,,,0.00,weatherlink.com 1.10,2013-09-28 02:30:00,
2013-09-27 22:45:00,56.9,56.0,30.15,NNE,17,0.0,1.0,95,0.00,,,0.00,weatherlink.com 1.10,2013-09-28 02:45:00,
2013-09-27 23:00:00,56.9,56.0,30.15,NNE,17,0.0,1.0,95,0.00,,,0.00,weatherlink.com 1.10,2013-09-28 03:00:00,
2013-09-27 23:15:00,57.1,56.0,30.15,NNE,17,0.0,0.0,95,0.00,,,0.00,weatherlink.com 1.10,2013-09-28 03:15:00,
2013-09-27 23:30:00,57.1,56.0,30.15,NNE,17,0.0,0.0,95,0.00,,,0.00,weatherlink.com 1.10,2013-09-28 03:30:00,
2013-09-27 23:45:00,56.9,56.0,30.15,NNE,17,0.0,0.0,95,0.00,,,0.00,weatherlink.com 1.10,2013-09-28 03:45:00,